SENTINEL-2C

Last updated on Sun Jun 21 2026 00:02:53 GMT+0000 (Coordinated Universal Time)

1 60989U 24157A 26171.45925764 .00000070 00000+0 43396-4 0 9995 2 60989 98.5692 246.1950 0000995 83.4152 276.7144 14.30818579 93454
UTC large
Height (km)
Speed (km/s)
/
Latitude / Longitude
Inclination (degrees)
Orbital Period (minutes)
Azimuth
Elevation
Range (km)
Doppler Factor

Next 0 passes for location: London (51.5072 / 0.1276)

No passes found over London.
SENTINEL-2C